Flag for France Weather past 2 weeks in Amiens, France

Now
54 °F

Overcast.


Feels Like: 51 °F
Forecast: 51 / 60 °F
Wind: 8 mph from Southwest

Location: Beauvais Airport

Current Time: Oct 23, 2014 at 9:59:00 AM

Latest Report: Oct 23, 2014 at 9:30 AM


Visibility: N/A

Pressure: 30.24 "Hg

Humidity: 77%

Dew point: 46 °F

Location of AmiensLocation

Historic Weather in Amiens — Graph

°F

Amiens temperature yesterday

Maximum temperature yesterday: 55 °F (at 1:30 PM)
Minimum temperature yesterday: 41 °F (at 8:00 AM)
Average temperature yesterday: 49 °F

Past Weeks' High & Low Weather Summary

 TemperatureHumidityPressure
High73 °F (Oct 18, 2:30 PM)100% (Oct 8, 9:00 AM)30.30 "Hg (Oct 8, 9:00 AM)
Low41 °F (Oct 22, 8:00 AM)56% (Oct 9, 3:30 PM)29.50 "Hg (Oct 8, 6:30 PM)
Average56 °F86%29.88 "Hg
* Reported Oct 8 9:00 AM — Oct 23 9:00 AM, Amiens, Weather by CustomWeather, © 2014

Note: Actual official high and low records may vary slightly from our data, if they occured in-between our weather recording intervals... More about our weather records

Advertising

Amiens weather history for previous 24 hours

 ConditionsComfort  
Time TempWeatherWind HumidityBarometerVisibility
9:00 AM
Oct 23
52 °FOvercast.8 mph82%30.24 "HgN/A
8:30 AM52 °FOvercast.6 mph82%30.24 "HgN/A
8:00 AM52 °FOvercast.6 mph82%30.24 "HgN/A
7:30 AM52 °FOvercast.7 mph82%30.24 "HgN/A
7:00 AM52 °FOvercast.5 mph88%30.24 "HgN/A
6:30 AM52 °FOvercast.7 mph88%30.24 "HgN/A
6:00 AM52 °FOvercast.7 mph88%30.24 "HgN/A
5:30 AM52 °FMostly cloudy.7 mph88%30.24 "HgN/A
5:00 AM52 °FOvercast.6 mph88%30.24 "HgN/A
4:30 AM52 °FOvercast.8 mph88%30.27 "HgN/A
4:00 AM52 °FOvercast.9 mph88%30.27 "HgN/A
3:30 AM52 °FMostly cloudy.8 mph88%30.27 "HgN/A
3:00 AM52 °FMostly cloudy.8 mph88%30.27 "HgN/A
2:30 AM52 °FMostly cloudy.7 mph88%30.27 "HgN/A
2:00 AM52 °FOvercast.5 mph88%30.27 "HgN/A
1:30 AM50 °FMostly cloudy.2 mph88%30.27 "HgN/A
1:00 AM52 °FPartly cloudy.3 mph82%30.27 "HgN/A
12:30 AM50 °FMostly cloudy.3 mph88%30.30 "HgN/A
12:00 AM50 °FOvercast.3 mph88%30.30 "HgN/A
11:30 PM
Oct 22
50 °FMostly cloudy.6 mph88%30.30 "HgN/A
11:00 PM50 °FPartly cloudy.5 mph88%30.30 "HgN/A
10:30 PM50 °FPartly cloudy.6 mph82%30.30 "HgN/A
10:00 PM48 °FOvercast.6 mph87%30.30 "HgN/A
9:30 PM48 °FPartly cloudy.3 mph87%30.30 "HgN/A
9:00 PM46 °FPassing clouds.5 mph87%30.30 "HgN/A
8:30 PM46 °FPartly cloudy.5 mph87%30.27 "HgN/A
8:00 PM46 °FPassing clouds.3 mph87%30.27 "HgN/A
7:30 PM48 °FPassing clouds.7 mph82%30.27 "HgN/A
7:00 PM50 °FClear.7 mph76%30.27 "HgN/A
6:30 PM52 °FClear.8 mph67%30.27 "HgN/A
6:00 PM54 °FClear.13 mph63%30.27 "HgN/A
5:30 PM55 °FBroken clouds.13 mph59%30.27 "HgN/A
5:00 PM55 °FOvercast.12 mph59%30.27 "HgN/A
4:30 PM55 °FPartly sunny.15 mph59%30.27 "HgN/A
4:00 PM55 °FBroken clouds.15 mph59%30.27 "HgN/A
3:30 PM55 °FBroken clouds.12 mph59%30.27 "HgN/A
3:00 PM55 °FPartly sunny.14 mph59%30.27 "HgN/A
2:30 PM54 °FMostly cloudy.16 mph67%30.27 "HgN/A
2:00 PM55 °FMostly cloudy.16 mph63%30.27 "HgN/A
1:30 PM55 °FMore clouds than sun.15 mph63%30.30 "HgN/A
1:00 PM54 °FMore clouds than sun.17 mph67%30.30 "HgN/A
12:30 PM54 °FBroken clouds.16 mph72%30.30 "HgN/A
12:00 PM52 °FBroken clouds.12 mph72%30.30 "HgN/A
11:30 AM52 °FClear.9 mph72%30.30 "HgN/A
11:00 AM50 °FClear.9 mph76%30.30 "HgN/A
10:30 AM50 °FPartly sunny.8 mph76%30.27 "HgN/A
10:00 AM48 °FPartly sunny.8 mph76%30.27 "HgN/A
9:30 AM46 °FBroken clouds.7 mph82%30.27 "HgN/A
9:00 AM43 °FPassing clouds.6 mph87%30.27 "HgN/A
Weather by CustomWeather, © 2014

See weather overviewHow to use our weather pages